Weather History for Kendall, FL

Change the Weather History Date:

Wednesday, September 25, 2013

  Actual Average Record
Temperature  
Mean Temperature 84 °F -  
Max Temperature 91 °F 88 °F 93 °F (1997)
Min Temperature 77 °F 72 °F 69 °F (1990)
Cooling Degree Days 19    
Growing Degree Days 34 (Base 50)    
Moisture  
Dew Point 76 °F    
Average Humidity 82    
Maximum Humidity 94    
Minimum Humidity 59    
Precipitation  
Precipitation 0.08 in - - ()
Sea Level Pressure  
Sea Level Pressure 29.88 in    
Wind  
Wind Speed 5 mph (West)    
Max Wind Speed 21 mph    
Max Gust Speed 40 mph    
Visibility 10 miles    
Events Rain    
Averages and records for this station are not official NWS values.
T = Trace of Precipitation, MM = Missing Value Source: NWS Daily Summary

Daily Weather History Graph

Daily Weather History Graph

Search for Another Location

Airport:

Trip Planner

Search our weather history database for the weather conditions in past years. The results will help you decide how hot, cold, wet, or windy it might be!

Date:

Astronomy

Sep. 25, 2013 Rise Set
Actual Time 7:11 AM EDT 7:14 PM EDT
Civil Twilight 6:48 AM EDT 7:37 PM EDT
Nautical Twilight 6:22 AM EDT 8:04 PM EDT
Astronomical Twilight 5:55 AM EDT 8:30 PM EDT
Moon 11:49 PM EDT (9/25) 12:45 PM EDT (9/25)
Length of Visible Light 12h 48m
Length of Day
12h 02m
Waning Gibbous, 64% of the Moon is Illuminated
Sep 25
Waning Gibbous
Sep 26
Last Quarter
Oct 4
New
Oct 11
First Quarter
Oct 18
Full

Hourly Weather History & Observations

Time (EDT) Temp. Heat Index Dew Point Humidity Pressure Visibility Wind Dir Wind Speed Gust Speed Precip Events Conditions
12:53 AM 78.1 °F - 75.0 °F 90% 29.92 in 10.0 mi NW 3.5 mph - 0.00 in   Clear
1:53 AM 77.0 °F - 75.0 °F 94% 29.90 in 10.0 mi Calm Calm - N/A   Clear
2:53 AM 77.0 °F - 75.0 °F 94% 29.88 in 10.0 mi South 3.5 mph - N/A   Clear
3:53 AM 77.0 °F - 75.0 °F 94% 29.86 in 10.0 mi South 3.5 mph - N/A   Clear
4:53 AM 77.0 °F - 73.9 °F 90% 29.86 in 10.0 mi South 3.5 mph - N/A   Clear
5:53 AM 77.0 °F - 75.0 °F 94% 29.87 in 10.0 mi South 3.5 mph - N/A   Clear
6:53 AM 77.0 °F - 75.0 °F 94% 29.88 in 10.0 mi Calm Calm - N/A   Clear
7:53 AM 78.1 °F - 75.9 °F 93% 29.89 in 10.0 mi Calm Calm - N/A   Clear
8:53 AM 82.9 °F 93.8 °F 79.0 °F 88% 29.89 in 10.0 mi SW 5.8 mph - N/A   Clear
9:53 AM 86.0 °F 99.3 °F 79.0 °F 79% 29.91 in 10.0 mi WSW 8.1 mph - N/A   Partly Cloudy
10:53 AM 88.0 °F 100.2 °F 77.0 °F 70% 29.91 in 10.0 mi WSW 8.1 mph - N/A   Scattered Clouds
11:53 AM 89.1 °F 100.2 °F 75.9 °F 65% 29.90 in 10.0 mi West 12.7 mph - N/A   Partly Cloudy
12:53 PM 91.9 °F 103.9 °F 75.9 °F 59% 29.89 in 10.0 mi West 8.1 mph 19.6 mph N/A   Scattered Clouds
1:33 PM 87.8 °F 97.6 °F 75.2 °F 66% 29.87 in 10.0 mi NW 17.3 mph - N/A   Mostly Cloudy
1:53 PM 89.1 °F 99.1 °F 75.0 °F 63% 29.86 in 10.0 mi NW 13.8 mph - N/A   Partly Cloudy
2:53 PM 91.9 °F 103.9 °F 75.9 °F 59% 29.85 in 10.0 mi WNW 15.0 mph 23.0 mph N/A   Clear
3:34 PM 78.8 °F - 75.2 °F 89% 29.87 in 7.0 mi NNW 20.7 mph 40.3 mph 0.01 in Rain Light Rain
3:53 PM 81.0 °F 86.7 °F 75.0 °F 82% 29.88 in 10.0 mi North 9.2 mph - 0.01 in Rain Light Rain
4:53 PM 86.0 °F 96.0 °F 75.9 °F 72% 29.85 in 5.0 mi NW 12.7 mph - 0.07 in   Haze
5:53 PM 87.1 °F 98.8 °F 77.0 °F 72% 29.85 in 10.0 mi WNW 5.8 mph - N/A   Clear
6:53 PM 84.9 °F 94.1 °F 75.9 °F 74% 29.83 in 10.0 mi SW 6.9 mph - N/A   Clear
7:53 PM 81.0 °F 87.3 °F 75.9 °F 85% 29.85 in 10.0 mi West 3.5 mph - N/A   Clear
8:53 PM 81.0 °F 87.3 °F 75.9 °F 85% 29.85 in 10.0 mi Calm Calm - N/A   Clear
9:53 PM 79.0 °F - 75.9 °F 90% 29.88 in 10.0 mi Calm Calm - N/A   Clear
10:53 PM 79.0 °F - 77.0 °F 94% 29.88 in 10.0 mi Calm Calm - N/A   Clear
11:53 PM 79.0 °F - 77.0 °F 94% 29.88 in 10.0 mi West 4.6 mph - N/A   Clear